{"data":{"norad_id":62757,"epoch":"2026-05-24T15:39:55.846080Z","epoch_age_seconds":98321,"freshness":"FRESH","line1":"1 62757U 25014Y   26144.65272970  .00154091  00000+0  92998-3 0  9993","line2":"2 62757  42.9991 253.8652 0002034 273.4559  86.6078 15.76418227 77066","mean_motion":15.76418227,"eccentricity":0.0002034,"inclination_deg":42.9991,"raan_deg":253.8652,"arg_perigee_deg":273.4559,"mean_anomaly_deg":86.6078,"bstar":0.00092998,"rev_number":7706,"period_min":91.346317578451,"perigee_km":339.23188686916,"apogee_km":341.96506846147,"semimajor_km":6718.7354776653,"source":"CELESTRAK","updated_at":"2026-05-25T13:38:03.241728Z"}}